STARLINK-11482, 62520

Orbit data source: Space-Track

STARLINK-11482, 62520 is a payload satellite owned by SpaceX/Seattle (US) in LEO that was launched on Wed, 08 Jan 2025 UTC via an FALCON 9 launch vehicle from the Air Force Eastern Test Range (AFETR). Payload-class satellites include a variety of spacecraft equipped with specific instruments for various scientific and technological missions. These include communications satellites like Starlink; space stations such as the ISS; scientific satellites like the Hubble; Earth observation satellites from companies like Planet Labs, Umbra, and HawkEye 360; GPS; miniature CubeSats for education and research; and military/defense satellites.

Loading next visibility...
Identifier
62520, 2025-004K
Orbit
LEO
Last TLE update
11 hours ago
Origin
Manufacturer
SpaceX/Seattle
Mission
Operational Commercial Communications
Bus & Motor
STARLINK V2M, Unknown motor
Mass
730 kg wet, ~700 kg dry
Launch date (UTC)
2025-01-08 (6 months ago)
Launch vehicle
FALCON 9
Launch site
Air Force Eastern Test Range (AFETR)
Object type
Payload
Rocket body
Debris
Shape & HBR
Box + 2 Pan, 29 m
Radar Cross Section
36.964 m², Large (>1 m²)

Expand to show TLE details & history

TLE from 11 hours ago
0 STARLINK-11482
1 62520U 25004K   25181.97330212  .00249615  00000-0  18909-2 0  9996
2 62520  42.9992 147.6700 0002390 286.0099  74.0505 15.70840106 28536
Epoch: 2025-06-30T23:21Z
TLE epoch observation values (Epoch: 2025-06-30T23:21:33.303Z)
Latitude
-0.00002°
Longitude
-121.99422°
Altitude
355.824 km
Speed
7.698 km/s
True Right ascension
09h 50m 40s
True Declination
0° 00' 00"
Sunlit
Object was in daylight at epoch
Visualization orbit readout
Latitude
-8.51915°
Longitude
-133.85685°
Altitude
356.32 km
Speed
7.697 km/s
Apparent Right ascension
09h 17m 48s
Apparent Declination
-23° 42' 30"
Sunlit
Object is in daylight
Visualization observer readout
Local Sidereal Time
21:37:37
Azimuth
15.943° NNE
Elevation
-73.262°
Doppler factor
1
Orbital elements
Apogee altitude
360.087 km
Perigee altitude
356.866 km
Semi-major axis
6,736.613 km
Eccentricity
0.00024
Inclination
42.9992°
RAAN
147.67°
Arg. of periapsis
286.0099°
True anomaly
Unknown
Mean anomaly
74.0505°
Eccentric anomaly
Unknown
Mean motion
3.92537 °/min
Orbital period
91.71 mins
BSTAR
0.0018909
Loading maneuver chart data...
Loading SW <> Apogee altitude chart data...
Loading historical data...
Loading historical data...
Loading historical data...
Loading historical data...
Loading historical data...
Loading historical data...
Loading historical data...

STARLINK-11482 Visibility forecast

Observer location: undefined°, undefined°

Span
Click to sort rows by Start time (UTC) header in descending order
Start Az.
Max El. time (UTC)
Max El. Az.
Max El.
End time (UTC)
End Az.
4 mins2025-07-02 01:33:15.198Z230.381° WSW2025-07-02 01:34:15.198Z192.599° SSW40.611°2025-07-02 01:37:15.198Z76.116° E
4 mins2025-07-02 03:09:15.198Z292.487° WNW2025-07-02 03:10:15.198Z325.354° NNW33.579°2025-07-02 03:13:15.198Z68.421° E
4 mins2025-07-02 04:45:15.198Z297.674° NW2025-07-02 04:47:15.198Z40.481° NE39.17°2025-07-02 04:49:15.198Z90.088° ESE
|